Location: Haliburton Scout Reserve
(45.0900°N, 78.3200°W)
Time: 04:41:25
(UTC-04:00)

PCSat - Pass Details

Date: 29 May 2022
Orbit: 784 x 795 km, 67.1° (Epoch: 24 June)

Event Time Altitude Azimuth Distance (km) Brightness Sun altitude
Rises 01:55:58 0° 329° (NNW) 3,305 13.5 -22.5°
Reaches altitude 10° 01:58:25 10° 331° (NNW) 2,372 12.7 -22.4°
Maximum altitude 02:03:51 72° 56° (ENE) 837 9.7 -22.2°
Enters shadow 02:06:42 29° 135° (SE) 1,429 10.6 -22.1°
